View from above orbital plane
|
View from above satellite
|
Ground track
|
The orbit data is extracted from the following two-line orbital elements,
1 00058U 60013A 21107.95829430 .00000100 00000-0 25902-4 0 9997
2 00058 28.3288 349.7953 0164940 70.3226 291.5036 13.46326022979684
Epoch (UTC): | 17 April 2021 22:59:56 |
Eccentricity: | 0.0164940 |
inclination: | 28.3288° |
perigee height: | 962 km |
apogee height: | 1209 km |
right ascension of ascending node: | 349.7953° |
argument of perigee: | 70.3226° |
revolutions per day: | 13.46326022 |
mean anomaly at epoch: | 291.5036° |
orbit number at epoch: | 97968 |
The dashed part of the orbit path shows where the satellite is in the earth's shadow,
|
|